Location: Peterborough
(44.3091°N, 78.3197°W)
Time: 16:34:20
(UTC-04:00)

Transit 4A - Pass Details

Date: 26 March 2023
Orbit: 864 x 980 km, 66.8° (Epoch: 04 June)

Event Time Altitude Azimuth Distance (km) Brightness Sun altitude
Rises 17:57:55 0° 310° (NW) 3,590 11.5 16.1°
Reaches altitude 10° 18:01:49 10° 286° (WNW) 2,666 11.6 15.4°
Maximum altitude 18:04:41 14° 258° (WSW) 2,422 14.7 14.9°
Drops below altitude 10° 18:07:36 10° 230° (SW) 2,690 11.6 14.4°
Sets 18:11:36 0° 206° (SSW) 3,648 11.5 13.7°
